Location: Temple Hill
(37.3073°N, 88.6303°W)
Time: 17:27:10
(UTC+00:00)

CORIOLIS - Pass Details

Date: 23 November 2020
Orbit: 818 x 839 km, 98.7° (Epoch: 19 January)

Event Time Altitude Azimuth Distance (km) Brightness Sun altitude
Rises 23:14:26 0° 157° (SSE) 3,348 7.3 -7.3°
Reaches altitude 10° 23:16:47 10° 154° (SSE) 2,422 6.5 -7.7°
Maximum altitude 23:22:05 64° 73° (ENE) 915 4.2 -8.7°
Drops below altitude 10° 23:27:27 10° 353° (N) 2,451 6.5 -9.7°
Sets 23:29:50 0° 351° (N) 3,392 7.2 -10.2°
